Flag for Comoros Weather past 2 weeks in Mutsamudu, Comoros

Now
77 °F

Passing clouds.


Feels Like: 79 °F
Forecast: 75 / 78 °F
Wind: 15 mph from South

Location: Dzaoudzi / Pamanzi Mayotte

Current Time: Jun 30, 2015 at 6:42:20 AM

Latest Report: Jun 30, 2015 at 6:00 AM


Visibility: N/A

Pressure: 30.04 "Hg

Humidity: 79%

Dew point: 70 °F

Location of MutsamuduLocation

Historic Weather in Mutsamudu — Graph

°F

Mutsamudu temperature yesterday

Maximum temperature yesterday: 84 °F (at 10:00 AM)
Minimum temperature yesterday: 72 °F (at 3:30 AM)
Average temperature yesterday: 78 °F

Past Weeks' High & Low Weather Summary

 TemperatureHumidityPressure
High86 °F (Jun 17, 11:37 AM)94% (Jun 18, 6:30 AM)30.12 "Hg (Jun 18, 6:30 AM)
Low70 °F (Jun 17, 3:30 AM)42% (Jun 16, 3:00 PM)29.86 "Hg (Jun 17, 3:00 AM)
Average79 °F71%30.02 "Hg
* Reported Jun 15 5:00 AM — Jun 30 5:30 AM, Mutsamudu, Weather by CustomWeather, © 2015

Note: Actual official high and low records may vary slightly from our data, if they occured in-between our weather recording intervals... More about our weather records

Advertising

Mutsamudu weather history for previous 24 hours

 ConditionsComfort  
Time TempWeatherWind HumidityBarometerVisibility
5:30 AM
Tue, Jun 30
77 °FPassing clouds.14 mph79%30.01 "HgN/A
5:00 AM77 °FPassing clouds.13 mph74%30.01 "HgN/A
4:30 AM77 °FWarm.14 mph69%30.01 "HgN/A
4:00 AM75 °FMild.5 mph65%30.01 "HgN/A
3:30 AM73 °FMild.6 mph69%30.01 "HgN/A
3:00 AM70 °FMild.6 mph73%30.01 "HgN/A
2:30 AM70 °FMild.5 mph78%30.01 "HgN/A
2:00 AM72 °FMild.5 mph73%30.01 "HgN/A
1:30 AM72 °FMild.2 mph78%30.01 "HgN/A
12:30 AM75 °FMild.6 mph74%30.04 "HgN/A
12:00 AM75 °FMild.7 mph78%30.07 "HgN/A
11:30 PM
Mon, Jun 29
77 °FWarm.8 mph79%30.07 "HgN/A
11:00 PM75 °FMild.9 mph83%30.07 "HgN/A
10:30 PM75 °FMild.8 mph83%30.07 "HgN/A
10:00 PM75 °FMild.7 mph83%30.07 "HgN/A
9:30 PM77 °FWarm.6 mph74%30.09 "HgN/A
9:00 PM77 °FPassing clouds.6 mph74%30.07 "HgN/A
8:30 PM77 °FPassing clouds.7 mph74%30.07 "HgN/A
8:00 PM77 °FWarm.6 mph74%30.07 "HgN/A
7:30 PM77 °FWarm.6 mph74%30.07 "HgN/A
7:00 PM77 °FPassing clouds.6 mph74%30.07 "HgN/A
6:30 PM77 °FPassing clouds.6 mph74%30.04 "HgN/A
6:00 PM79 °FPassing clouds.7 mph70%30.04 "HgN/A
5:30 PM79 °FPassing clouds.8 mph70%30.04 "HgN/A
5:00 PM81 °FPassing clouds.9 mph66%30.04 "HgN/A
4:30 PM81 °FPassing clouds.10 mph66%30.04 "HgN/A
4:00 PM81 °FPassing clouds.10 mph66%30.04 "HgN/A
3:30 PM82 °FPassing clouds.9 mph62%30.04 "HgN/A
3:00 PM82 °FPassing clouds.9 mph62%30.04 "HgN/A
2:30 PM82 °FPassing clouds.9 mph62%30.04 "HgN/A
2:00 PM82 °FPassing clouds.10 mph66%30.04 "HgN/A
1:30 PM82 °FPassing clouds.9 mph62%30.04 "HgN/A
1:00 PM82 °FPassing clouds.10 mph62%30.07 "HgN/A
12:30 PM84 °FPassing clouds.10 mph58%30.07 "HgN/A
12:00 PM84 °FPassing clouds.10 mph58%30.07 "HgN/A
11:30 AM84 °FPassing clouds.12 mph58%30.09 "HgN/A
11:00 AM84 °FPassing clouds.12 mph58%30.09 "HgN/A
10:30 AM84 °FPassing clouds.13 mph58%30.09 "HgN/A
10:00 AM84 °FPassing clouds.14 mph58%30.09 "HgN/A
9:30 AM82 °FPassing clouds.13 mph66%30.12 "HgN/A
9:00 AM82 °FScattered clouds.9 mph62%30.09 "HgN/A
8:30 AM81 °FScattered clouds.9 mph66%30.09 "HgN/A
8:04 AM81 °FScattered clouds.8 mph66%30.09 "HgN/A
7:30 AM79 °FScattered clouds.8 mph70%30.07 "HgN/A
6:30 AM77 °FScattered clouds.8 mph79%30.07 "HgN/A
6:00 AM75 °FPassing clouds.6 mph83%30.07 "HgN/A
Weather by CustomWeather, © 2015

See weather overviewHow to use our weather pages